Weather past 2 weeks in Cayenne, French Guiana

Now
75 °F

Light rain. Broken clouds.


Feels Like: 74 °F
Forecast: 79 / 82 °F
Wind: 6 mph from Southeast

Location: Cayenne / Rochambeau

Current Time: May 29, 2015 at 12:33:04 PM

Latest Report: May 29, 2015 at 12:00 PM


Visibility: N/A

Pressure: 29.92 "Hg

Humidity: 94%

Dew point: 73 °F

Location of CayenneLocation

Historic Weather in Cayenne — Graph

°F

Cayenne temperature yesterday

Maximum temperature yesterday: 86 °F (at 11:00 AM)
Minimum temperature yesterday: 75 °F (at 3:00 AM)
Average temperature yesterday: 80 °F

Past Weeks' High & Low Weather Summary

 TemperatureHumidityPressure
High90 °F (May 18, 2:00 PM)100% (May 15, 12:00 AM)30.01 "Hg (May 15, 12:00 AM)
Low72 °F (May 24, 1:30 AM)59% (May 18, 1:00 PM)29.80 "Hg (May 28, 3:30 PM)
Average79 °F89%29.91 "Hg
* Reported May 14 11:00 AM — May 29 11:30 AM, Cayenne, Weather by CustomWeather, © 2015

Note: Actual official high and low records may vary slightly from our data, if they occured in-between our weather recording intervals... More about our weather records

Advertising

Cayenne weather history for previous 24 hours

 ConditionsComfort  
Time TempWeatherWind HumidityBarometerVisibility
11:30 AM
Fri, May 29
77 °FHeavy rain. Fog.8 mph89%29.92 "Hg3 mi
11:00 AM79 °FLight rain. Partly sunny.No wind94%29.92 "Hg4 mi
10:30 AM79 °FMostly cloudy.No wind94%29.92 "HgN/A
10:00 AM77 °FBroken clouds.No wind100%29.92 "HgN/A
9:30 AM77 °FLight rain. Scattered clouds.No wind94%29.89 "HgN/A
9:00 AM77 °FLight rain. Broken clouds.No wind94%29.89 "HgN/A
8:30 AM77 °FLight rain. Broken clouds.No wind94%29.89 "HgN/A
8:00 AM77 °FRain. Cloudy.3 mph94%29.89 "Hg5 mi
7:30 AM77 °FRain. Cloudy.7 mph94%29.86 "Hg6 mi
7:00 AM77 °FRain. Broken clouds.8 mph94%29.86 "Hg5 mi
6:30 AM77 °FRain. More clouds than sun.12 mph94%29.86 "Hg4 mi
6:00 AM79 °FLight rain. Partly cloudy.13 mph89%29.83 "HgN/A
5:30 AM79 °FMostly cloudy.8 mph89%29.83 "HgN/A
5:00 AM79 °FLight rain. Overcast.7 mph89%29.80 "HgN/A
4:30 AM79 °FMostly cloudy.9 mph89%29.80 "HgN/A
4:00 AM79 °FPassing clouds.7 mph94%29.80 "HgN/A
3:30 AM77 °FPassing clouds.2 mph94%29.80 "HgN/A
3:00 AM77 °FHeavy rain. Fog.2 mph94%29.83 "Hg0 mi
2:30 AM77 °FLight rain. Fog.1 mph94%29.83 "Hg2 mi
2:00 AM77 °FRain. Fog.No wind94%29.83 "Hg3 mi
1:30 AM77 °FHeavy rain. Fog.3 mph94%29.86 "Hg2 mi
1:00 AM77 °FHeavy rain. Fog.No wind94%29.86 "Hg1 mi
12:30 AM77 °FLight rain. Fog.7 mph94%29.89 "Hg2 mi
12:00 AM77 °FLight rain. Passing clouds.6 mph94%29.89 "Hg5 mi
11:30 PM
Thu, May 28
77 °FPassing clouds.No wind94%29.89 "HgN/A
11:00 PM77 °FLight rain. Passing clouds.6 mph94%29.89 "Hg5 mi
10:30 PM77 °FPartly cloudy.No wind94%29.89 "HgN/A
10:00 PM77 °FPartly cloudy.2 mph94%29.89 "HgN/A
9:30 PM77 °FPassing clouds.No wind94%29.89 "HgN/A
9:00 PM77 °FPassing clouds.1 mph94%29.86 "HgN/A
8:30 PM79 °FWarm.3 mph89%29.86 "HgN/A
7:00 PM79 °FMostly cloudy.3 mph89%29.83 "HgN/A
6:30 PM79 °FPartly sunny.1 mph89%29.83 "HgN/A
6:00 PM79 °FScattered clouds.3 mph89%29.83 "HgN/A
5:30 PM79 °FBroken clouds.5 mph89%29.80 "HgN/A
5:00 PM79 °FLight rain. Fog.10 mph94%29.80 "Hg2 mi
4:30 PM84 °FPartly sunny.13 mph79%29.80 "HgN/A
4:00 PM84 °FPartly sunny.15 mph79%29.80 "HgN/A
3:30 PM86 °FBroken clouds.17 mph75%29.80 "HgN/A
3:00 PM86 °FBroken clouds.15 mph75%29.83 "HgN/A
2:30 PM86 °FPassing clouds.20 mph70%29.83 "HgN/A
2:00 PM86 °FPassing clouds.17 mph70%29.83 "HgN/A
1:30 PM84 °FPassing clouds.16 mph79%29.86 "HgN/A
1:00 PM84 °FBroken clouds.14 mph84%29.86 "HgN/A
12:30 PM86 °FPartly sunny.13 mph75%29.89 "HgN/A
12:00 PM86 °FPartly sunny.16 mph75%29.89 "HgN/A
Weather by CustomWeather, © 2015

See weather overviewHow to use our weather pages